Oslo, Norway

6:56 PM CET on February 24, 2017 (GMT +0100)
Oslo Airport

Weather History for ENGM - September, 2013

Change the Weather History Date:

Thursday, September 12, 2013

  Actual Average Record
Temperature  
Mean Temperature 55 °F -  
Max Temperature 66 °F 53 °F 69 °F (2006)
Min Temperature 44 °F 39 °F 33 °F (2000)
Degree Days  
Heating Degree Days 10    
Growing Degree Days 5 (Base 50)    
Moisture  
Dew Point 49 °F    
Average Humidity 80    
Maximum Humidity 100    
Minimum Humidity 48    
Precipitation  
Precipitation 0.01 in 0.13 in - ()
Sea Level Pressure  
Sea Level Pressure 30.01 in    
Wind  
Wind Speed 3 mph ()    
Max Wind Speed 8 mph    
Max Gust Speed 17 mph    
Visibility 4.9 miles    
Events Fog    
Averages and records for this station are not official NWS values.
T = Trace of Precipitation, MM = Missing Value Source: Averaged Metar Reports

Daily Weather History Graph

Daily Weather History Graph

Search for Another Location

Airport or City:

Trip Planner

Search our weather history database for the weather conditions in past years. The results will help you decide how hot, cold, wet, or windy it might be!

Date:

Astronomy

Sep. 12, 2013 Rise Set
Actual Time 6:36 AM CEST 7:46 PM CEST
Civil Twilight 5:53 AM CEST 8:28 PM CEST
Nautical Twilight 4:59 AM CEST 9:21 PM CEST
Astronomical Twilight 3:57 AM CEST 10:23 PM CEST
Moon 3:33 PM CEST (9/12) 10:39 PM CEST (9/12)
Length of Visible Light 14h 35m
Length of Day
13h 09m
Waxing Crescent, 47% of the Moon is Illuminated
Sep 12
Waxing Crescent
Sep 12
First Quarter
Sep 19
Full
Sep 27
Last Quarter
Oct 5
New

Hourly Weather History & Observations

Time (CEST) Temp. Windchill Dew Point Humidity Pressure Visibility Wind Dir Wind Speed Gust Speed Precip Events Conditions
12:20 AM 53.6 °F - 50.0 °F 88% 30.01 in - North 3.5 mph - N/A   Clear
12:50 AM 51.8 °F - 48.2 °F 88% 30.01 in - Variable 1.2 mph - N/A   Clear
1:20 AM 51.8 °F - 50.0 °F 94% 30.01 in - North 3.5 mph - N/A   Clear
1:50 AM 51.8 °F - 50.0 °F 94% 30.01 in 6.2 mi NNE 2.3 mph - N/A Fog Patches of Fog
2:00 AM 51 °F - 49 °F 92%  in 40 mi NNE 2.2 mph - - Fog Patches of Fog
2:20 AM 50.0 °F - 48.2 °F 94% 30.01 in 6.2 mi Variable 2.3 mph - N/A Fog Patches of Fog
2:50 AM 50.0 °F - 46.4 °F 87% 30.01 in - NNE 2.3 mph - N/A   Clear
3:20 AM 48.2 °F - 46.4 °F 93% 30.01 in 5.6 mi NNW 4.6 mph - N/A Fog Patches of Fog
3:50 AM 48.2 °F - 46.4 °F 93% 30.01 in 5.6 mi North 3.5 mph - N/A Fog Patches of Fog
4:20 AM 48.2 °F - 46.4 °F 93% 30.01 in 5.6 mi Variable 2.3 mph - N/A Fog Patches of Fog
4:50 AM 48.2 °F - 46.4 °F 93% 30.01 in 5.6 mi North 2.3 mph - N/A Fog Patches of Fog
5:20 AM 46.4 °F - 44.6 °F 93% 30.01 in 4.3 mi North 2.3 mph - N/A   Partly Cloudy
5:50 AM 46.4 °F - 44.6 °F 93% 30.01 in 6.2 mi Calm Calm - N/A Fog Patches of Fog
6:20 AM 44.6 °F - 42.8 °F 93% 30.01 in 6.2 mi NNE 2.3 mph - N/A   Partly Cloudy
6:50 AM 46.4 °F 45.2 °F 44.6 °F 93% 30.01 in 6.2 mi NNW 3.5 mph - N/A Fog Patches of Fog
7:20 AM 46.4 °F - 44.6 °F 93% 30.01 in 6.2 mi Variable 1.2 mph - N/A   Unknown
7:50 AM 46.4 °F - 46.4 °F 100% 30.01 in 6.2 mi Variable 1.2 mph - N/A   Scattered Clouds
8:20 AM 48.2 °F - 46.4 °F 93% 30.01 in 0.2 mi North 2.3 mph - N/A Fog Fog
8:50 AM 48.2 °F - 48.2 °F 100% 30.04 in 0.7 mi NNE 2.3 mph - N/A   Scattered Clouds
9:20 AM 51.8 °F - 50.0 °F 94% 30.04 in 0.7 mi NE 4.6 mph - N/A   Scattered Clouds
9:50 AM 51.8 °F - 50.0 °F 94% 30.04 in 0.2 mi NE 3.5 mph - N/A   Unknown
10:20 AM 51.8 °F - 51.8 °F 100% 30.04 in 2.2 mi Variable 2.3 mph - N/A   Mostly Cloudy
10:50 AM 55.4 °F - 51.8 °F 88% 30.04 in 2.5 mi NE 3.5 mph - N/A   Mostly Cloudy
11:20 AM 53.6 °F - 51.8 °F 94% 30.04 in 1.0 mi Variable 2.3 mph - N/A   Mostly Cloudy
11:50 AM 55.4 °F - 53.6 °F 94% 30.04 in 3.1 mi East 3.5 mph - N/A Fog Mostly Cloudy
12:20 PM 57.2 °F - 53.6 °F 88% 30.04 in 6.2 mi Variable 4.6 mph 17.3 mph N/A   Scattered Clouds
12:50 PM 60.8 °F - 53.6 °F 77% 30.04 in 6.2 mi SE 4.6 mph - N/A   Scattered Clouds
1:20 PM 60.8 °F - 50.0 °F 68% 30.04 in 6.2 mi SSE 4.6 mph - N/A   Scattered Clouds
1:50 PM 62.6 °F - 50.0 °F 63% 30.01 in 6.2 mi SSE 4.6 mph - N/A   Partly Cloudy
2:00 PM 64 °F - 49 °F 48%  in 22 mi South 4.5 mph - -   Partly Cloudy
2:20 PM 64.4 °F - 46.4 °F 52% 30.01 in 6.2 mi South 5.8 mph - N/A   Partly Cloudy
2:50 PM 64.4 °F - 46.4 °F 52% 30.01 in 6.2 mi South 6.9 mph - N/A   Partly Cloudy
3:20 PM 66.2 °F - 48.2 °F 52% 30.01 in 6.2 mi South 6.9 mph - N/A   Partly Cloudy
3:50 PM 66.2 °F - 48.2 °F 52% 30.01 in 6.2 mi South 5.8 mph - N/A   Partly Cloudy
4:20 PM 66.2 °F - 46.4 °F 49% 29.98 in 6.2 mi South 5.8 mph - N/A   Partly Cloudy
4:50 PM 66.2 °F - 48.2 °F 52% 29.98 in 6.2 mi SSW 5.8 mph - N/A   Partly Cloudy
5:20 PM 66.2 °F - 48.2 °F 52% 29.98 in 6.2 mi South 5.8 mph - N/A   Partly Cloudy
5:50 PM 64.4 °F - 48.2 °F 56% 29.98 in 6.2 mi SSW 6.9 mph - N/A   Partly Cloudy
6:20 PM 64.4 °F - 50.0 °F 59% 29.98 in 6.2 mi SSW 8.1 mph - N/A   Partly Cloudy
6:50 PM 64.4 °F - 50.0 °F 59% 29.98 in - SSW 6.9 mph - N/A   Clear
7:20 PM 60.8 °F - 50.0 °F 68% 29.98 in - South 8.1 mph - N/A   Clear
7:50 PM 59.0 °F - 50.0 °F 72% 29.98 in - SSW 8.1 mph - N/A   Clear
8:00 PM 59 °F - 50 °F 64%  in 34 mi South 2.2 mph - -   Partly Cloudy
8:20 PM 59.0 °F - 50.0 °F 72% 29.98 in - SW 4.6 mph - N/A   Clear
8:50 PM 57.2 °F - 50.0 °F 77% 29.98 in - SW 2.3 mph - N/A   Clear
9:20 PM 57.2 °F - 50.0 °F 77% 29.98 in - WSW 1.2 mph - N/A   Clear
9:50 PM 55.4 °F - 50.0 °F 82% 29.98 in - Calm Calm - N/A   Clear
10:20 PM 53.6 °F - 48.2 °F 82% 29.98 in - Variable 1.2 mph - N/A   Clear
10:50 PM 51.8 °F - 48.2 °F 88% 29.98 in - Calm Calm - N/A   Clear
11:20 PM 51.8 °F - 48.2 °F 88% 29.98 in - Calm Calm - N/A   Clear
11:50 PM 51.8 °F - 46.4 °F 82% 29.98 in 6.2 mi Calm Calm - N/A   Partly Cloudy